Regional Weather Roundup
Issued by NWS

Home | Current Version | Previous Version | Graphics & Text | Print | Product List | Glossary Off
Versions: 1 2 3 4 5 6 7 8 9 10 11 12 13 14 15 16 17 18 19 20 21 22 23 24 25 26 27 28 29 30 31 32 33 34 35 36 37 38 39 40 41 42 43 44 45 46 47 48 49 50

000
ASUS43 KMKX 280600
RWRWI

WISCONSIN REGIONAL WEATHER ROUNDUP
NATIONAL WEATHER SERVICE MILWAUKEE/SULLIVAN WI
100 AM CDT THU JUL 28 2016

NOTE: "FAIR" INDICATES FEW OR NO CLOUDS BELOW 12,000 FEET WITH NO
SIGNIFICANT WEATHER AND/OR OBSTRUCTIONS TO VISIBILITY.

WIZ001-002-006>008-014>016-023>028-280700-
NORTHWEST WISCONSIN

CITY           SKY/WX    TMP DP  RH WIND       PRES   REMARKS
SUPERIOR ARPT  PTCLDY    58  57  96 N5        30.05S
ASHLAND        CLOUDY    61  60  97 N7        30.04S
6HR MIN TEMP:  60; 6HR MAX TEMP:  64;

HAYWARD        CLOUDY    63  61  93 NE8       30.03S
6HR MIN TEMP:  63; 6HR MAX TEMP:  64; 6HR PCP:  0.06;

SIREN          NOT AVBL
CUMBERLAND     CLOUDY    63  63 100 N6        30.00F
RICE LAKE      MOCLDY    63  62  94 CALM      30.00F
CHETEK         NOT AVBL
LADYSMITH      CLOUDY    65  64  95 NE5       30.02R
EAU CLAIRE     CLOUDY    66  65  96 NE5       29.95F
MENOMONIE      CLOUDY    66  65  99 N7        29.98R
NEW RICHMOND   CLOUDY    66  65  97 N3        30.00S
OSCEOLA        CLOUDY    65  65 100 N6        30.03R
$$

WIZ003>005-009-010-017-018-280700-
NORTH CENTRAL WISCONSIN

CITY           SKY/WX    TMP DP  RH WIND       PRES   REMARKS
MANITOWISH WTR CLOUDY    63  63 100 CALM      30.03S
ARBOR VITAE    CLOUDY    64  62  94 CALM      30.03R
WOODRUFF       CLOUDY    64  62  94 CALM      30.03R
RHINELANDER    CLOUDY    65  63  93 NE5       30.03R
6HR MIN TEMP:  63; 6HR MAX TEMP:  69; 6HR PCP:  0.62;

EAGLE RIVER    CLOUDY    63  63 100 E3        30.02S
LAND O LAKES   CLOUDY    61  60  97 NE3       30.05R
PHILLIPS       CLOUDY    64  63  99 E3        30.01S
6HR MIN TEMP:  63; 6HR MAX TEMP:  65; 6HR PCP:  0.26;

TOMAHAWK       CLOUDY    62  61  96 CALM      30.01F
MEDFORD        RAIN      62  62 100 NE3       30.00R
MERRILL        HVY RAIN  63  63 100 CALM      30.00S
$$

WIZ029-030-035-036-043>047-280700-
CENTRAL WISCONSIN

CITY           SKY/WX    TMP DP  RH WIND       PRES   REMARKS
WAUSAU         CLOUDY    64  63  96 E7        29.97F
6HR MIN TEMP:  64; 6HR MAX TEMP:  68; 6HR PCP:  0.57;

MOSINEE        CLOUDY    63  63 100 E6        29.99F
MARSHFIELD     CLOUDY    66  63  90 E9        29.96F
6HR MIN TEMP:  66; 6HR MAX TEMP:  68; 6HR PCP:  0.13;

STEVENS POINT  MOCLDY    63  63  99 E7        29.98S
WAUPACA        DRIZZLE   67  67  99 CALM      29.98F
WAUTOMA        LGT RAIN  68  66  93 NE8       29.97S
6HR MIN TEMP:  68; 6HR MAX TEMP:  76; 6HR PCP:  0.15;

WISC RAPIDS    CLOUDY    66  63  90 E9        29.97F
6HR MIN TEMP:  66; 6HR MAX TEMP:  68; 6HR PCP:  0.44;

CAMP DOUGLAS   CLOUDY    68  68 100 E8        29.93F
$$

WIZ011>013-019>022-031-037>040-048>050-280700-
NORTHEAST WISCONSIN

CITY           SKY/WX    TMP DP  RH WIND       PRES   REMARKS
ANTIGO         LGT RAIN  64  63  99 E8        30.01S
SHAWANO        LGT RAIN  68  65  90 E8        29.99S
OCONTO         CLOUDY   N/A N/A N/A NE7       30.00S
STURGEON BAY   LGT RAIN  67  64  90 N13G20    30.02R
6HR MIN TEMP:  67; 6HR MAX TEMP:  74; 6HR PCP: TRACE;

GREEN BAY      RAIN      67  67 100 NE12      30.00R FOG
6HR MIN TEMP:  67; 6HR MAX TEMP:  75; 6HR PCP:  0.43;

MANITOWOC      NOT AVBL
APPLETON       CLOUDY    64  64 100 NE8       29.97S
CLINTONVILLE   CLOUDY    64  63  94 E5        29.98F
OSHKOSH        CLOUDY    73  63  70 NE7       29.97S
6HR MIN TEMP:  71; 6HR MAX TEMP:  77;

$$

WIZ032>034-041-042-053>061-280700-
SOUTHWEST WISCONSIN

CITY           SKY/WX    TMP DP  RH WIND       PRES   REMARKS
LA CROSSE      CLOUDY    72  67  84 E6        29.91F
6HR MIN TEMP:  72; 6HR MAX TEMP:  82;

SPARTA         CLOUDY    67  65  94 CALM      29.94F
VIROQUA        CLOUDY    71  67  87 S5        29.94F
BOSCOBEL       MOCLDY    67  66  97 CALM      29.93S FOG
6HR MIN TEMP:  67; 6HR MAX TEMP:  82;

PRAIRIE DU CHI CLEAR     68  66  92 CALM      29.92F
PLATTEVILLE    CLEAR     70  68  95 CALM      29.95F
$$

WIZ056-057-062-063-064-067-068-280700-
SOUTH CENTRAL WISCONSIN

CITY           SKY/WX    TMP DP  RH WIND       PRES   REMARKS
REEDSBURG      MOCLDY    70  70 100 CALM      29.94F
BARABOO/DELLS  MOCLDY    70  67  90 NE5       29.95S
LONE ROCK      NOT AVBL
MINERAL POINT  PTCLDY    72  68  88 CALM      29.95F
MADISON        CLOUDY    73  68  84 SE3       29.93F
6HR MIN TEMP:  72; 6HR MAX TEMP:  80;

MIDDLETON      CLOUDY    71  70  97 CALM      29.95F
WATERTOWN      CLOUDY    69  69 100 CALM      29.95S
MONROE         MOCLDY    73  64  73 CALM      29.95S
JANESVILLE     CLOUDY    72  70  94 CALM      29.94S
$$

WIZ051-052-058>065-066-070>072-280700-
SOUTHEAST WISCONSIN

CITY           SKY/WX    TMP DP  RH WIND       PRES   REMARKS
MILWAUKEE      PTCLDY    71  68  90 N5        29.95S
6HR MIN TEMP:  71; 6HR MAX TEMP:  77;

WAUKESHA       CLEAR     68  64  88 CALM      29.97S
MILWAUKEE/TIMM CLEAR     70  63  78 CALM      29.96S
RACINE         PTCLDY    71  68  90 CALM      29.96S
6HR MIN TEMP:  69; 6HR MAX TEMP:  75;

BURLINGTON     PTCLDY    68  67  96 CALM      29.95R
KENOSHA        CLOUDY    75  73  93 CALM      29.95S
6HR MIN TEMP:  72; 6HR MAX TEMP:  79;

FOND DU LAC    CLOUDY    71  65  81 NE5       29.97S
6HR MIN TEMP:  68; 6HR MAX TEMP:  78;

SHEBOYGAN      CLOUDY    66  65  96 CALM      29.97R FOG
6HR MIN TEMP:  64; 6HR MAX TEMP:  72; 6HR PCP: TRACE;

WEST BEND      CLEAR     64  64 100 CALM      29.97S
JUNEAU         MOCLDY    68  66  92 E3        29.96F
$$

LSZ147-162-280700-
LAKE SUPERIOR

STATION/POSITION TIME  TEMP    WIND        PRES    WAVE
                       AIR SEA DIR/SP/G            HT/PER
                 (UTC) (F)     (DEG/KT/KT) (MB)    (FT/S)
W MID LAKE BUOY  0450   60 60  350/  4/  6 1016.9R   1
DEVILS ISLAND    0500   62      40/  8/  9 1017.3S
PORT WING        0440   61      60/  5/  6 1017.6
SAXON HARBOR     0540   64      80/  2/  3 1016.6R
$$

LMZ867-665-643>646-280700-
LAKE MICHIGAN

STATION/POSITION TIME  TEMP    WIND        PRES    WAVE
                       AIR SEA DIR/SP/G            HT/PER
                 (UTC) (F)     (DEG/KT/KT) (MB)    (FT/S)
CHAMBERS ISLAND  0500   66     300/ 10/ 14 1016.6R
N MID LAKE BUOY  0450   68 70   10/ 14/ 17 1014.7R   2/ 4
NORTHPORT PIER   0500   69      10/  6/  9 1015.9R
SISTER BAY       0506   65      10/  5/  6   N/A
ALGOMA LAKESHORE 0513           60/  8/ 11   N/A
KEWAUNEE LAKESHO 0500   70     350/  6/  8 1014.4F
SHEBOYGAN LAKESH 0500   68      CALM  /  1 1014.7R
PORT WASHINGTON  0500   69     350/  2/  4 1015.2S
ATWATER BUOY     0500   61 61  300/  4/  4 1015.7F
MILWAUKEE LAKESH 0510   67      30/  5/  6   N/A
S MID LAKE BUOY  0450   76 75  150/  6/  6 1013.1S   1
KENOSHA   LAKESH 0500   73     130/  2/  3 1013.9S
$$

TC  - TEMPERATURE IN CELSIUS
VSB - VISIBILITY IN STATUTE MILES
WCI - WIND CHILL INDEX
HX  - HEAT INDEX




USA.gov is the U.S. government's official web portal to all federal, state and local government web resources and services.